User: anonymous   Login
Location: Bothwell
(42.3833°S, 147.0000°E)
Time: 18:48:46
(UTC+11:00)
Language:

GNOMES-3 - Orbit

View from above orbital plane
View from above orbital plane
View from above satellite
View from above satellite

Ground track
Ground track

The orbit data is extracted from the following two-line orbital elements,

1 52158U 22033B   24063.77605768  .00002759  00000-0  38748-3 0  9998
2 52158  97.8960 143.9167 0012809 161.5801 198.5876 14.78151300103597
Epoch (UTC): 03 March 2024 18:37:31
Eccentricity: 0.0012809
inclination: 97.8960°
perigee height: 626 km
apogee height: 644 km
right ascension of ascending node: 143.9167°
argument of perigee: 161.5801°
revolutions per day: 14.78151300
mean anomaly at epoch: 198.5876°
orbit number at epoch: 10359

The dashed part of the orbit path shows where the satellite is in the earth's shadow,  

DLR